User: anonymous   Login
Location: Muenchen
(48.1800°N, 11.5800°E)
Time: 00:35:55
(UTC+02:00)
Language:

Iridium 37 - Orbit

View from above orbital plane
View from above orbital plane
View from above satellite
View from above satellite

Ground track
Ground track

The orbit data is extracted from the following two-line orbital elements,

1 24968U 97056D   16212.19780734  .00000146  00000-0  45084-4 0  9993
2 24968  86.3959  93.5056 0002274  83.9336 276.2119 14.34214619986383
Epoch (UTC): 30 July 2016 04:44:50
Eccentricity: 0.0002274
inclination: 86.3959°
perigee height: 776 km
apogee height: 779 km
right ascension of ascending node: 93.5056°
argument of perigee: 83.9336°
revolutions per day: 14.34214619
mean anomaly at epoch: 276.2119°
orbit number at epoch: 98638

The dashed part of the orbit path shows where the satellite is in the earth's shadow,  

DLR